| time (UTC) | temp F | wind direction | speed MPH | gust MPH | rain 1hr in | rain 24hr in | rain mn in | humidity % | barometer mb |
| 20260506050936 | 56 | 315 | 1.0 | 3.0 | 0.00 | 0.00 | 0.00 | 76 | 1015.6 |
| 20260506050155 | 57 | 270 | 1.0 | 2.0 | 0.00 | 0.00 | 0.00 | 76 | 1015.5 |
| 20260506044642 | 57 | 39 | 1.0 | 2.0 | 0.00 | 0.00 | 0.00 | 74 | 1015.5 |
| 20260506044143 | 57 | 310 | 1.0 | 3.0 | 0.00 | 0.00 | 0.00 | 74 | 1015.5 |
| 20260506043639 | 57 | 9 | 1.0 | 3.0 | 0.00 | 0.00 | 0.00 | 73 | 1015.5 |
| 20260506043137 | 58 | 327 | 1.0 | 3.0 | 0.00 | 0.00 | 0.00 | 73 | 1015.5 |
| 20260506042913 | 58 | 222 | 2.0 | 7.0 | 0.00 | 0.00 | 0.00 | 73 | 1015.5 |
| 20260506042136 | 58 | 242 | 3.0 | 7.0 | 0.00 | 0.00 | 0.00 | 73 | 1015.5 |
| 20260506041633 | 58 | 279 | 3.0 | 5.0 | 0.00 | 0.00 | 0.00 | 72 | 1015.4 |
| 20260506041133 | 58 | 300 | 4.0 | 6.0 | 0.00 | 0.00 | 0.00 | 72 | 1015.4 |
| 20260506040635 | 58 | 299 | 4.0 | 7.0 | 0.00 | 0.00 | 0.00 | 72 | 1015.4 |
| 20260506040135 | 58 | 289 | 4.0 | 7.0 | 0.00 | 0.00 | 0.00 | 72 | 1015.0 |
| 20260506035632 | 59 | 303 | 4.0 | 6.0 | 0.00 | 0.00 | 0.00 | 72 | 1015.0 |
| 20260506035131 | 59 | 296 | 5.0 | 9.0 | 0.00 | 0.00 | 0.00 | 71 | 1015.0 |
| 20260506034632 | 59 | 314 | 4.0 | 9.0 | 0.00 | 0.00 | 0.00 | 71 | 1014.9 |
| 20260506034133 | 59 | 296 | 3.0 | 7.0 | 0.00 | 0.00 | 0.00 | 70 | 1014.9 |
| 20260506033634 | 60 | 273 | 3.0 | 4.0 | 0.00 | 0.00 | 0.00 | 70 | 1014.9 |
| 20260506033129 | 60 | 304 | 3.0 | 7.0 | 0.00 | 0.00 | 0.00 | 70 | 1014.7 |
| 20260506032630 | 60 | 321 | 4.0 | 7.0 | 0.00 | 0.00 | 0.00 | 69 | 1014.7 |
| 20260506032123 | 60 | 297 | 5.0 | 7.0 | 0.00 | 0.00 | 0.00 | 69 | 1014.7 |
| 20260506031615 | 61 | 318 | 5.0 | 7.0 | 0.00 | 0.00 | 0.00 | 68 | 1014.5 |
| 20260506031106 | 61 | 300 | 5.0 | 7.0 | 0.00 | 0.00 | 0.00 | 68 | 1014.5 |
| 20260506030559 | 61 | 306 | 4.0 | 8.0 | 0.00 | 0.00 | 0.00 | 67 | 1014.5 |
| 20260506030058 | 62 | 310 | 4.0 | 7.0 | 0.00 | 0.00 | 0.00 | 66 | 1014.5 |
| 20260506025548 | 62 | 304 | 5.0 | 8.0 | 0.00 | 0.00 | 0.00 | 65 | 1014.5 |
| 20260506025038 | 62 | 263 | 5.0 | 9.0 | 0.00 | 0.00 | 0.00 | 65 | 1014.5 |
| 20260506024534 | 62 | 273 | 5.0 | 9.0 | 0.00 | 0.00 | 0.00 | 64 | 1014.5 |
| 20260506024026 | 63 | 277 | 4.0 | 7.0 | 0.00 | 0.00 | 0.00 | 63 | 1014.5 |
| 20260506023521 | 63 | 298 | 5.0 | 7.0 | 0.00 | 0.00 | 0.00 | 64 | 1014.5 |
| 20260506023303 | 63 | 308 | 5.0 | 10.0 | 0.00 | 0.00 | 0.00 | 64 | 1014.5 |
| 20260506022515 | 63 | 302 | 5.0 | 10.0 | 0.00 | 0.00 | 0.00 | 63 | 1014.5 |
| 20260506022017 | 63 | 281 | 6.0 | 9.0 | 0.00 | 0.00 | 0.00 | 64 | 1014.4 |
| 20260506021515 | 63 | 304 | 7.0 | 10.0 | 0.00 | 0.00 | 0.00 | 64 | 1014.4 |
| 20260506021014 | 63 | 303 | 8.0 | 12.0 | 0.00 | 0.00 | 0.00 | 64 | 1014.4 |
| 20260506020513 | 64 | 310 | 7.0 | 12.0 | 0.00 | 0.00 | 0.00 | 63 | 1014.4 |
| 20260506020010 | 64 | 322 | 5.0 | 9.0 | 0.00 | 0.00 | 0.00 | 62 | 1014.4 |
| 20260506015753 | 64 | 302 | 4.0 | 10.0 | 0.00 | 0.00 | 0.00 | 62 | 1014.4 |
| 20260506015008 | 64 | 329 | 6.0 | 10.0 | 0.00 | 0.00 | 0.00 | 63 | 1014.4 |
| 20260506014751 | 64 | 329 | 5.0 | 10.0 | 0.00 | 0.00 | 0.00 | 62 | 1014.4 |
| 20260506014250 | 65 | 285 | 4.0 | 8.0 | 0.00 | 0.00 | 0.00 | 61 | 1014.4 |
| 20260506013757 | 65 | 328 | 3.0 | 5.0 | 0.00 | 0.00 | 0.00 | 61 | 1014.4 |
| 20260506013006 | 65 | 239 | 2.0 | 4.0 | 0.00 | 0.00 | 0.00 | 61 | 1014.4 |
| 20260506012753 | 65 | 206 | 2.0 | 4.0 | 0.00 | 0.00 | 0.00 | 60 | 1014.4 |
| 20260506012002 | 65 | 208 | 2.0 | 4.0 | 0.00 | 0.00 | 0.00 | 61 | 1014.4 |
| 20260506011455 | 65 | 203 | 2.0 | 5.0 | 0.00 | 0.00 | 0.00 | 62 | 1014.4 |
| 20260506011006 | 65 | 243 | 3.0 | 6.0 | 0.00 | 0.00 | 0.00 | 63 | 1014.4 |
| 20260506005944 | 64 | 140 | 4.0 | 6.0 | 0.00 | 0.00 | 0.00 | 63 | 1014.4 |
| 20260506005444 | 64 | 211 | 4.0 | 6.0 | 0.00 | 0.00 | 0.00 | 63 | 1014.4 |
| 20260506004942 | 64 | 161 | 4.0 | 7.0 | 0.00 | 0.00 | 0.00 | 64 | 1014.5 |
| 20260506004446 | 64 | 207 | 4.0 | 7.0 | 0.00 | 0.00 | 0.00 | 64 | 1014.5 |
| 20260506003942 | 64 | 254 | 4.0 | 7.0 | 0.00 | 0.00 | 0.00 | 64 | 1014.5 |
| 20260506003441 | 64 | 248 | 4.0 | 7.0 | 0.00 | 0.00 | 0.00 | 64 | 1014.5 |
| 20260506002942 | 64 | 218 | 4.0 | 11.0 | 0.00 | 0.00 | 0.00 | 64 | 1014.5 |
| 20260506002440 | 63 | 203 | 4.0 | 11.0 | 0.00 | 0.00 | 0.00 | 64 | 1014.5 |
| 20260506001939 | 64 | 204 | 3.0 | 9.0 | 0.00 | 0.00 | 0.00 | 64 | 1014.6 |
| 20260506001442 | 64 | 184 | 4.0 | 9.0 | 0.00 | 0.00 | 0.00 | 64 | 1014.6 |
| 20260506000933 | 63 | 235 | 5.0 | 10.0 | 0.00 | 0.00 | 0.00 | 64 | 1014.6 |
| 20260506000432 | 63 | 198 | 4.0 | 10.0 | 0.00 | 0.00 | 0.00 | 65 | 1014.8 |
| 20260505235932 | 63 | 190 | 4.0 | 7.0 | 0.00 | 0.00 | 0.00 | 64 | 1014.8 |
| 20260505235431 | 63 | 203 | 3.0 | 7.0 | 0.00 | 0.00 | 0.00 | 64 | 1014.8 |
| 20260505234929 | 63 | 194 | 3.0 | 7.0 | 0.00 | 0.00 | 0.00 | 65 | 1015.0 |
| 20260505234434 | 62 | 203 | 4.0 | 7.0 | 0.00 | 0.00 | 0.00 | 65 | 1015.0 |
| 20260505233932 | 62 | 194 | 4.0 | 7.0 | 0.00 | 0.00 | 0.00 | 66 | 1015.0 |
| 20260505233432 | 62 | 188 | 5.0 | 10.0 | 0.00 | 0.00 | 0.00 | 67 | 1015.1 |
| 20260505232930 | 61 | 340 | 5.0 | 10.0 | 0.00 | 0.00 | 0.00 | 68 | 1015.1 |
| 20260505232428 | 61 | 342 | 5.0 | 8.0 | 0.00 | 0.00 | 0.00 | 68 | 1015.1 |
| 20260505231930 | 61 | 331 | 5.0 | 9.0 | 0.00 | 0.00 | 0.00 | 68 | 1015.4 |
| 20260505231429 | 61 | 305 | 6.0 | 9.0 | 0.00 | 0.00 | 0.00 | 69 | 1015.4 |
| 20260505230930 | 61 | 270 | 5.0 | 9.0 | 0.00 | 0.00 | 0.00 | 68 | 1015.4 |
| 20260505230429 | 61 | 295 | 5.0 | 9.0 | 0.00 | 0.00 | 0.00 | 69 | 1015.5 |
| 20260505225929 | 61 | 313 | 5.0 | 9.0 | 0.00 | 0.00 | 0.00 | 68 | 1015.5 |
| 20260505225429 | 61 | 285 | 5.0 | 10.0 | 0.00 | 0.00 | 0.00 | 68 | 1015.5 |
| 20260505225227 | 61 | 275 | 4.0 | 10.0 | 0.00 | 0.00 | 0.00 | 69 | 1015.5 |
| 20260505224432 | 61 | 311 | 4.0 | 7.0 | 0.00 | 0.00 | 0.00 | 70 | 1015.5 |
| 20260505223932 | 61 | 295 | 4.0 | 7.0 | 0.00 | 0.00 | 0.00 | 69 | 1015.5 |
| 20260505223431 | 61 | 314 | 4.0 | 8.0 | 0.00 | 0.00 | 0.00 | 70 | 1015.5 |
| 20260505222929 | 60 | 255 | 5.0 | 10.0 | 0.00 | 0.00 | 0.00 | 70 | 1015.5 |
| 20260505222717 | 60 | 328 | 6.0 | 10.0 | 0.00 | 0.00 | 0.00 | 71 | 1015.5 |
| 20260505221929 | 60 | 326 | 6.0 | 10.0 | 0.00 | 0.00 | 0.00 | 71 | 1015.6 |
| 20260505221430 | 60 | 283 | 7.0 | 11.0 | 0.00 | 0.00 | 0.00 | 71 | 1015.6 |
| 20260505220929 | 61 | 9 | 5.0 | 11.0 | 0.00 | 0.00 | 0.00 | 69 | 1015.6 |
| 20260505220430 | 61 | 291 | 2.0 | 5.0 | 0.00 | 0.00 | 0.00 | 68 | 1015.7 |
| 20260505215929 | 61 | 200 | 3.0 | 6.0 | 0.00 | 0.00 | 0.00 | 67 | 1015.7 |
| 20260505215427 | 61 | 240 | 3.0 | 6.0 | 0.00 | 0.00 | 0.00 | 68 | 1015.7 |
| 20260505214918 | 61 | 268 | 3.0 | 6.0 | 0.00 | 0.00 | 0.00 | 68 | 1015.8 |
| 20260505214420 | 61 | 323 | 3.0 | 6.0 | 0.00 | 0.00 | 0.00 | 68 | 1015.8 |
| 20260505213920 | 61 | 231 | 2.0 | 4.0 | 0.00 | 0.00 | 0.00 | 68 | 1015.8 |
| 20260505213425 | 61 | 231 | 2.0 | 4.0 | 0.00 | 0.00 | 0.00 | 69 | 1015.9 |
| 20260505212926 | 60 | 302 | 3.0 | 4.0 | 0.00 | 0.00 | 0.00 | 69 | 1015.9 |
| 20260505212654 | 60 | 306 | 3.0 | 6.0 | 0.00 | 0.00 | 0.00 | 69 | 1015.9 |
| 20260505211917 | 61 | 287 | 2.0 | 6.0 | 0.00 | 0.00 | 0.00 | 68 | 1015.9 |
| 20260505211416 | 61 | 245 | 2.0 | 5.0 | 0.00 | 0.00 | 0.00 | 68 | 1015.9 |
| 20260505210939 | 61 | 306 | 3.0 | 7.0 | 0.00 | 0.00 | 0.00 | 68 | 1015.9 |
| 20260505205903 | 60 | 205 | 3.0 | 6.0 | 0.00 | 0.00 | 0.00 | 68 | 1016.0 |
| 20260505205401 | 60 | 220 | 3.0 | 4.0 | 0.00 | 0.00 | 0.00 | 68 | 1016.0 |
| 20260505205147 | 60 | 173 | 2.0 | 4.0 | 0.00 | 0.00 | 0.00 | 68 | 1016.0 |
| 20260505204401 | 60 | 192 | 2.0 | 4.0 | 0.00 | 0.00 | 0.00 | 68 | 1016.0 |
| 20260505203901 | 60 | 204 | 2.0 | 6.0 | 0.00 | 0.00 | 0.00 | 68 | 1016.0 |
| 20260505203649 | 60 | 298 | 2.0 | 6.0 | 0.00 | 0.00 | 0.00 | 68 | 1016.0 |
| 20260505202901 | 60 | 229 | 2.0 | 5.0 | 0.00 | 0.00 | 0.00 | 68 | 1016.0 |
| 20260505202405 | 60 | 202 | 3.0 | 6.0 | 0.00 | 0.00 | 0.00 | 68 | 1016.0 |
| 20260505202144 | 60 | 281 | 3.0 | 6.0 | 0.00 | 0.00 | 0.00 | 69 | 1015.9 |
| 20260505201404 | 60 | 277 | 3.0 | 6.0 | 0.00 | 0.00 | 0.00 | 69 | 1015.9 |
| 20260505200904 | 59 | 267 | 2.0 | 7.0 | 0.00 | 0.00 | 0.00 | 70 | 1015.9 |
| 20260505200404 | 59 | 232 | 3.0 | 7.0 | 0.00 | 0.00 | 0.00 | 69 | 1016.0 |
| 20260505200148 | 59 | 223 | 4.0 | 7.0 | 0.00 | 0.00 | 0.00 | 69 | 1016.0 |
| 20260505195405 | 59 | 200 | 3.0 | 7.0 | 0.00 | 0.00 | 0.00 | 70 | 1016.0 |
| 20260505195151 | 59 | 232 | 3.0 | 7.0 | 0.00 | 0.00 | 0.00 | 69 | 1016.0 |
| 20260505194407 | 59 | 200 | 2.0 | 6.0 | 0.00 | 0.00 | 0.00 | 70 | 1016.0 |
| 20260505193905 | 59 | 225 | 2.0 | 5.0 | 0.00 | 0.00 | 0.00 | 72 | 1016.0 |
| 20260505193357 | 59 | 335 | 3.0 | 6.0 | 0.00 | 0.00 | 0.00 | 72 | 1016.0 |
| 20260505192844 | 59 | 295 | 3.0 | 5.0 | 0.00 | 0.00 | 0.00 | 71 | 1016.0 |
| 20260505192339 | 58 | 229 | 4.0 | 7.0 | 0.00 | 0.00 | 0.00 | 72 | 1016.0 |
| 20260505191841 | 58 | 204 | 5.0 | 10.0 | 0.00 | 0.00 | 0.00 | 71 | 1015.9 |
| 20260505191341 | 58 | 229 | 5.0 | 10.0 | 0.00 | 0.00 | 0.00 | 71 | 1015.9 |
| 20260505190900 | 58 | 271 | 3.0 | 9.0 | 0.00 | 0.00 | 0.00 | 70 | 1015.9 |
| 20260505185836 | 58 | 223 | 4.0 | 6.0 | 0.00 | 0.00 | 0.00 | 71 | 1016.0 |
| 20260505185334 | 58 | 326 | 4.0 | 7.0 | 0.00 | 0.00 | 0.00 | 71 | 1016.0 |
| 20260505184835 | 58 | 282 | 4.0 | 7.0 | 0.00 | 0.00 | 0.00 | 71 | 1016.0 |
| 20260505184334 | 58 | 253 | 3.0 | 6.0 | 0.00 | 0.00 | 0.00 | 72 | 1016.0 |
| 20260505183834 | 58 | 264 | 4.0 | 10.0 | 0.00 | 0.00 | 0.00 | 72 | 1016.0 |
| 20260505183332 | 58 | 228 | 4.0 | 10.0 | 0.00 | 0.00 | 0.00 | 72 | 1016.0 |
| 20260505182852 | 58 | 304 | 3.0 | 7.0 | 0.00 | 0.00 | 0.00 | 72 | 1016.0 |
| 20260505182111 | 58 | 230 | 3.0 | 7.0 | 0.00 | 0.00 | 0.00 | 72 | 1015.9 |
| 20260505181604 | 57 | 208 | 5.0 | 11.0 | 0.00 | 0.00 | 0.00 | 72 | 1015.9 |
| 20260505180832 | 57 | 265 | 4.0 | 11.0 | 0.00 | 0.00 | 0.00 | 72 | 1015.9 |
| 20260505180319 | 58 | 291 | 3.0 | 6.0 | 0.00 | 0.00 | 0.00 | 72 | 1015.9 |
| 20260505175816 | 58 | 242 | 3.0 | 6.0 | 0.00 | 0.00 | 0.00 | 72 | 1015.9 |
| 20260505175311 | 57 | 231 | 3.0 | 7.0 | 0.00 | 0.00 | 0.00 | 73 | 1015.9 |
| 20260505174804 | 57 | 204 | 4.0 | 7.0 | 0.00 | 0.00 | 0.00 | 73 | 1015.8 |
| 20260505174257 | 57 | 282 | 3.0 | 7.0 | 0.00 | 0.00 | 0.00 | 73 | 1015.8 |
| 20260505173751 | 57 | 209 | 3.0 | 7.0 | 0.00 | 0.00 | 0.00 | 73 | 1015.8 |
| 20260505173245 | 57 | 285 | 4.0 | 8.0 | 0.00 | 0.00 | 0.00 | 73 | 1015.6 |
| 20260505172732 | 57 | 252 | 3.0 | 8.0 | 0.00 | 0.00 | 0.00 | 73 | 1015.6 |
| 20260505172231 | 57 | 268 | 3.0 | 6.0 | 0.00 | 0.00 | 0.00 | 73 | 1015.6 |
| 20260505171722 | 57 | 211 | 3.0 | 6.0 | 0.00 | 0.00 | 0.00 | 73 | 1015.5 |
| 20260505171221 | 57 | 189 | 3.0 | 7.0 | 0.00 | 0.00 | 0.00 | 73 | 1015.5 |
| 20260505170954 | 57 | 234 | 3.0 | 7.0 | 0.00 | 0.00 | 0.00 | 73 | 1015.5 |
| 20260505170213 | 57 | 241 | 4.0 | 10.0 | 0.00 | 0.00 | 0.00 | 74 | 1015.5 |
| 20260505165738 | 57 | 154 | 3.0 | 10.0 | 0.00 | 0.00 | 0.00 | 74 | 1015.5 |
| 20260505164714 | 57 | 247 | 3.0 | 9.0 | 0.00 | 0.00 | 0.00 | 74 | 1015.5 |
| 20260505164212 | 57 | 270 | 2.0 | 6.0 | 0.00 | 0.00 | 0.00 | 74 | 1015.5 |
| 20260505163709 | 57 | 283 | 3.0 | 9.0 | 0.00 | 0.00 | 0.00 | 74 | 1015.5 |
| 20260505163210 | 56 | 274 | 4.0 | 9.0 | 0.00 | 0.00 | 0.00 | 75 | 1015.4 |
| 20260505162707 | 56 | 242 | 3.0 | 8.0 | 0.00 | 0.00 | 0.00 | 73 | 1015.4 |
| 20260505162206 | 56 | 249 | 3.0 | 10.0 | 0.00 | 0.00 | 0.00 | 75 | 1015.4 |
| 20260505161704 | 56 | 211 | 4.0 | 10.0 | 0.00 | 0.00 | 0.00 | 76 | 1015.2 |
| 20260505161201 | 56 | 198 | 3.0 | 10.0 | 0.00 | 0.00 | 0.00 | 76 | 1015.2 |
| 20260505160701 | 56 | 220 | 3.0 | 6.0 | 0.00 | 0.00 | 0.00 | 76 | 1015.2 |
| 20260505160201 | 56 | 223 | 3.0 | 6.0 | 0.00 | 0.00 | 0.00 | 77 | 1015.2 |
| 20260505152701 | 56 | 196 | 4.0 | 9.0 | 0.00 | 0.00 | 0.00 | 78 | 1015.0 |
| 20260505152202 | 56 | 249 | 3.0 | 9.0 | 0.00 | 0.00 | 0.00 | 78 | 1015.0 |
| 20260505151703 | 56 | 197 | 4.0 | 7.0 | 0.00 | 0.00 | 0.00 | 79 | 1015.0 |
| 20260505151201 | 56 | 191 | 4.0 | 7.0 | 0.00 | 0.00 | 0.00 | 79 | 1015.0 |
| 20260505150701 | 56 | 185 | 3.0 | 8.0 | 0.00 | 0.00 | 0.00 | 79 | 1015.0 |
| 20260505150201 | 56 | 171 | 5.0 | 10.0 | 0.00 | 0.00 | 0.00 | 78 | 1014.8 |
| 20260505140203 | 56 | 194 | 2.0 | 4.0 | 0.00 | 0.00 | 0.00 | 80 | 1014.4 |
| 20260505130139 | 55 | 257 | 1.0 | 2.0 | 0.00 | 0.00 | 0.00 | 80 | 1013.9 |
| 20260505124630 | 55 | 254 | 2.0 | 4.0 | 0.00 | 0.00 | 0.00 | 80 | 1013.9 |
| 20260505124129 | 55 | 258 | 2.0 | 4.0 | 0.00 | 0.00 | 0.00 | 80 | 1013.9 |
| 20260505123628 | 55 | 259 | 1.0 | 3.0 | 0.00 | 0.00 | 0.00 | 80 | 1013.9 |
| 20260505123134 | 55 | 266 | 2.0 | 4.0 | 0.00 | 0.00 | 0.00 | 80 | 1013.7 |
| 20260505122618 | 55 | 264 | 2.0 | 4.0 | 0.00 | 0.00 | 0.00 | 80 | 1013.7 |
| 20260505122109 | 55 | 231 | 2.0 | 4.0 | 0.00 | 0.00 | 0.00 | 80 | 1013.6 |
| 20260505121603 | 55 | 258 | 2.0 | 3.0 | 0.00 | 0.00 | 0.00 | 80 | 1013.6 |
| 20260505121347 | 55 | 252 | 2.0 | 4.0 | 0.00 | 0.00 | 0.00 | 80 | 1013.6 |
| 20260505120557 | 55 | 243 | 2.0 | 5.0 | 0.00 | 0.00 | 0.00 | 80 | 1013.4 |
| 20260505120056 | 55 | 226 | 2.0 | 5.0 | 0.00 | 0.00 | 0.00 | 80 | 1013.4 |
| 20260505115551 | 55 | 226 | 2.0 | 4.0 | 0.00 | 0.00 | 0.00 | 80 | 1013.4 |
| 20260505115045 | 55 | 211 | 2.0 | 4.0 | 0.00 | 0.00 | 0.00 | 80 | 1013.4 |
| 20260505114545 | 55 | 269 | 2.0 | 4.0 | 0.00 | 0.00 | 0.00 | 80 | 1013.4 |
| 20260505114044 | 55 | 223 | 1.0 | 4.0 | 0.00 | 0.00 | 0.00 | 80 | 1013.4 |
| 20260505113541 | 55 | 220 | 1.0 | 3.0 | 0.00 | 0.00 | 0.00 | 81 | 1013.4 |
| 20260505113044 | 55 | 252 | 2.0 | 3.0 | 0.00 | 0.00 | 0.00 | 81 | 1013.4 |
| 20260505112557 | 55 | 240 | 1.0 | 3.0 | 0.00 | 0.00 | 0.00 | 81 | 1013.4 |
| 20260505111531 | 55 | 221 | 1.0 | 2.0 | 0.00 | 0.00 | 0.00 | 81 | 1013.4 |
| 20260505111315 | 55 | 221 | 2.0 | 3.0 | 0.00 | 0.00 | 0.00 | 81 | 1013.4 |
| 20260505110820 | 55 | 254 | 2.0 | 3.0 | 0.00 | 0.00 | 0.00 | 80 | 1013.3 |
| 20260505101506 | 55 | 181 | 3.0 | 6.0 | 0.00 | 0.00 | 0.00 | 81 | 1013.0 |
| 20260505101005 | 55 | 220 | 2.0 | 4.0 | 0.00 | 0.00 | 0.00 | 81 | 1013.0 |
| 20260505100511 | 55 | 171 | 2.0 | 4.0 | 0.00 | 0.00 | 0.00 | 81 | 1013.0 |
| 20260505100003 | 55 | 173 | 2.0 | 3.0 | 0.00 | 0.00 | 0.00 | 81 | 1013.0 |
| 20260505095503 | 55 | 226 | 1.0 | 3.0 | 0.00 | 0.00 | 0.00 | 82 | 1013.0 |
| 20260505095003 | 55 | 184 | 1.0 | 3.0 | 0.00 | 0.00 | 0.00 | 82 | 1012.9 |
| 20260505094504 | 55 | 232 | 1.0 | 3.0 | 0.00 | 0.00 | 0.00 | 82 | 1012.9 |
| 20260505094005 | 55 | 223 | 1.0 | 2.0 | 0.00 | 0.00 | 0.00 | 82 | 1012.9 |
| 20260505093502 | 55 | 229 | 1.0 | 2.0 | 0.00 | 0.00 | 0.00 | 82 | 1012.8 |
| 20260505093240 | 54 | 241 | 1.0 | 3.0 | 0.00 | 0.00 | 0.00 | 82 | 1012.8 |
| 20260505092458 | 54 | 154 | 1.0 | 3.0 | 0.00 | 0.00 | 0.00 | 82 | 1012.8 |
| 20260505091951 | 54 | 267 | 1.0 | 2.0 | 0.00 | 0.00 | 0.00 | 82 | 1012.8 |
| 20260505091721 | 54 | 267 | 1.0 | 3.0 | 0.00 | 0.00 | 0.00 | 82 | 1012.8 |
| 20260505090941 | 54 | 305 | 1.0 | 3.0 | 0.00 | 0.00 | 0.00 | 82 | 1012.8 |
| 20260505090713 | 54 | 291 | 2.0 | 3.0 | 0.00 | 0.00 | 0.00 | 82 | 1012.7 |
| 20260505090209 | 54 | 260 | 1.0 | 3.0 | 0.00 | 0.00 | 0.00 | 82 | 1012.7 |
| 20260505085431 | 54 | 233 | 2.0 | 3.0 | 0.00 | 0.00 | 0.00 | 82 | 1012.7 |
| 20260505084930 | 54 | 233 | 2.0 | 3.0 | 0.00 | 0.00 | 0.00 | 82 | 1012.8 |
| 20260505084705 | 54 | 251 | 1.0 | 3.0 | 0.00 | 0.00 | 0.00 | 82 | 1012.8 |
| 20260505083929 | 54 | 225 | 1.0 | 4.0 | 0.00 | 0.00 | 0.00 | 82 | 1012.8 |
| 20260505083428 | 54 | 208 | 2.0 | 5.0 | 0.00 | 0.00 | 0.00 | 82 | 1012.7 |
| 20260505082927 | 54 | 211 | 3.0 | 5.0 | 0.00 | 0.00 | 0.00 | 82 | 1012.7 |
| 20260505082423 | 54 | 200 | 3.0 | 4.0 | 0.00 | 0.00 | 0.00 | 82 | 1012.7 |
| 20260505081921 | 54 | 152 | 2.0 | 4.0 | 0.00 | 0.00 | 0.00 | 81 | 1012.7 |
| 20260505081415 | 54 | 130 | 2.0 | 3.0 | 0.00 | 0.00 | 0.00 | 81 | 1012.7 |
| 20260505080914 | 54 | 132 | 2.0 | 3.0 | 0.00 | 0.00 | 0.00 | 81 | 1012.7 |
| 20260505080404 | 54 | 149 | 2.0 | 4.0 | 0.00 | 0.00 | 0.00 | 81 | 1012.7 |
| 20260505075903 | 54 | 148 | 3.0 | 4.0 | 0.00 | 0.00 | 0.00 | 81 | 1012.7 |
| 20260505075403 | 54 | 150 | 3.0 | 5.0 | 0.00 | 0.00 | 0.00 | 81 | 1012.7 |
| 20260505074859 | 54 | 148 | 3.0 | 5.0 | 0.00 | 0.00 | 0.00 | 81 | 1012.5 |
| 20260505074358 | 54 | 148 | 2.0 | 4.0 | 0.00 | 0.00 | 0.00 | 81 | 1012.5 |
| 20260505073852 | 54 | 121 | 2.0 | 4.0 | 0.00 | 0.00 | 0.00 | 81 | 1012.5 |
| 20260505073351 | 54 | 135 | 2.0 | 4.0 | 0.00 | 0.00 | 0.00 | 80 | 1012.3 |
| 20260505072848 | 54 | 162 | 2.0 | 4.0 | 0.00 | 0.00 | 0.00 | 80 | 1012.3 |
| 20260505072625 | 55 | 157 | 2.0 | 4.0 | 0.00 | 0.00 | 0.00 | 80 | 1012.3 |
| 20260505071847 | 55 | 150 | 2.0 | 4.0 | 0.00 | 0.00 | 0.00 | 80 | 1012.2 |
| 20260505071342 | 55 | 152 | 2.0 | 4.0 | 0.00 | 0.00 | 0.00 | 80 | 1012.2 |
| 20260505070844 | 55 | 175 | 3.0 | 5.0 | 0.00 | 0.00 | 0.00 | 80 | 1012.2 |
| 20260505070356 | 55 | 146 | 4.0 | 5.0 | 0.00 | 0.00 | 0.00 | 79 | 1011.8 |
| 20260505065615 | 55 | 164 | 3.0 | 6.0 | 0.00 | 0.00 | 0.00 | 78 | 1011.8 |
| 20260505064833 | 55 | 149 | 2.0 | 5.0 | 0.00 | 0.00 | 0.00 | 79 | 1011.8 |
| 20260505064324 | 55 | 126 | 1.0 | 4.0 | 0.00 | 0.00 | 0.00 | 79 | 1011.8 |
| 20260505063823 | 56 | 269 | 2.0 | 4.0 | 0.00 | 0.00 | 0.00 | 79 | 1011.8 |
| 20260505063323 | 56 | 324 | 2.0 | 4.0 | 0.00 | 0.00 | 0.00 | 79 | 1011.6 |
| 20260505062827 | 56 | 330 | 2.0 | 4.0 | 0.00 | 0.00 | 0.00 | 79 | 1011.6 |
| 20260505062609 | 56 | 319 | 2.0 | 4.0 | 0.00 | 0.00 | 0.00 | 79 | 1011.6 |
| 20260505061819 | 56 | 330 | 3.0 | 5.0 | 0.00 | 0.00 | 0.00 | 79 | 1011.4 |
| 20260505061312 | 56 | 335 | 4.0 | 5.0 | 0.00 | 0.00 | 0.00 | 79 | 1011.4 |
| 20260505060808 | 56 | 321 | 3.0 | 4.0 | 0.00 | 0.00 | 0.00 | 78 | 1011.4 |
| 20260505060309 | 56 | 331 | 3.0 | 4.0 | 0.00 | 0.00 | 0.00 | 78 | 1011.4 |
| 20260505055803 | 56 | 336 | 2.0 | 4.0 | 0.00 | 0.00 | 0.00 | 78 | 1011.4 |
| 20260505055331 | 56 | 325 | 3.0 | 5.0 | 0.00 | 0.00 | 0.00 | 77 | 1011.4 |
| 20260505054305 | 56 | 292 | 4.0 | 5.0 | 0.00 | 0.00 | 0.00 | 77 | 1011.3 |
| 20260505053805 | 56 | 323 | 2.0 | 5.0 | 0.00 | 0.00 | 0.00 | 76 | 1011.3 |
| 20260505053259 | 56 | 302 | 2.0 | 5.0 | 0.00 | 0.00 | 0.00 | 76 | 1011.3 |
| 20260505052753 | 57 | 265 | 3.0 | 6.0 | 0.00 | 0.00 | 0.00 | 76 | 1011.3 |
| 20260505052246 | 57 | 308 | 4.0 | 6.0 | 0.00 | 0.00 | 0.00 | 76 | 1011.3 |
| 20260505051738 | 57 | 308 | 3.0 | 7.0 | 0.00 | 0.00 | 0.00 | 76 | 1011.3 |
| 20260505051236 | 57 | 319 | 2.0 | 7.0 | 0.00 | 0.00 | 0.00 | 76 | 1011.3 |